Location: Unspecified
(43.4680°N, 87.1740°E)
Time: 05:28:51
(UTC+00:00)

Cosmos 2154 Rocket - Pass Details

Date: 17 April 2021
Orbit: 967 x 996 km, 82.9° (Epoch: 16 May)

Event Time Altitude Azimuth Distance (km) Brightness Sun altitude
Rises 18:57:11 0° 351° (N) 3,723 7.9 -34.7°
Reaches altitude 10° 18:59:43 10° 351° (N) 2,771 7.1 -34.6°
Enters shadow 19:04:39 57° 349° (N) 1,168 4.5 -34.4°
